Albert Lea, MN

9:06 AM CDT on April 30, 2017 (GMT -0500)
Albert Lea Municipal

Weather History for KAEL - October, 2012

Change the Weather History Date:

Tuesday, October 2, 2012

  Actual Average Record
Temperature  
Mean Temperature 54 °F -  
Max Temperature 71 °F 63 °F 84 °F (1997)
Min Temperature 37 °F 41 °F 6 °F (1998)
Degree Days  
Heating Degree Days 11    
Growing Degree Days 4 (Base 50)    
Moisture  
Dew Point 38 °F    
Average Humidity 57    
Maximum Humidity 93    
Minimum Humidity 25    
Precipitation  
Precipitation 0.00 in - - ()
Sea Level Pressure  
Sea Level Pressure 29.92 in    
Wind  
Wind Speed 3 mph (ENE)    
Max Wind Speed 8 mph    
Max Gust Speed -    
Visibility 10 miles    
Events      
Averages and records for this station are not official NWS values.
T = Trace of Precipitation, MM = Missing Value Source: NWS Daily Summary

Daily Weather History Graph

Daily Weather History Graph

Search for Another Location

Airport or City:

Trip Planner

Search our weather history database for the weather conditions in past years. The results will help you decide how hot, cold, wet, or windy it might be!

Date:

Astronomy

Oct. 02, 2012 Rise Set
Actual Time 7:12 AM CDT 6:51 PM CDT
Civil Twilight 6:44 AM CDT 7:20 PM CDT
Nautical Twilight 6:10 AM CDT 7:53 PM CDT
Astronomical Twilight 5:37 AM CDT 8:27 PM CDT
Moon 7:58 PM CDT (10/2) 9:46 AM CDT (10/2)
Length of Visible Light 12h 36m
Length of Day
11h 38m
Waning Gibbous, 94% of the Moon is Illuminated
Oct 2
Waning Gibbous
Oct 8
Last Quarter
Oct 15
New
Oct 21
First Quarter
Oct 29
Full

Hourly Weather History & Observations

Time (CDT) Temp. Windchill Dew Point Humidity Pressure Visibility Wind Dir Wind Speed Gust Speed Precip Events Conditions
12:13 AM 51.8 °F - 37.4 °F 58% 29.93 in 10.0 mi North 6.9 mph - N/A   Clear
12:33 AM 51.8 °F - 37.4 °F 58% 29.93 in 10.0 mi North 5.8 mph - N/A   Clear
12:53 AM 50.0 °F - 37.4 °F 62% 29.93 in 10.0 mi North 5.8 mph - N/A   Clear
1:33 AM 48.2 °F - 37.4 °F 66% 29.94 in 10.0 mi Calm Calm - N/A   Clear
1:53 AM 48.2 °F - 37.4 °F 66% 29.95 in 10.0 mi North 5.8 mph - N/A   Clear
2:13 AM 46.4 °F 43.5 °F 37.4 °F 71% 29.95 in 10.0 mi North 5.8 mph - N/A   Clear
2:33 AM 46.4 °F 43.5 °F 37.4 °F 71% 29.95 in 10.0 mi North 5.8 mph - N/A   Clear
2:53 AM 46.4 °F 45.2 °F 37.4 °F 71% 29.95 in 10.0 mi NNW 3.5 mph - N/A   Clear
3:13 AM 44.6 °F 43.1 °F 37.4 °F 76% 29.94 in 10.0 mi North 3.5 mph - N/A   Clear
3:33 AM 44.6 °F 43.1 °F 35.6 °F 71% 29.95 in 10.0 mi North 3.5 mph - N/A   Clear
3:53 AM 44.6 °F - 37.4 °F 76% 29.95 in 10.0 mi Calm Calm - N/A   Clear
4:13 AM 44.6 °F 43.1 °F 37.4 °F 76% 29.94 in 10.0 mi North 3.5 mph - N/A   Clear
4:33 AM 44.6 °F - 37.4 °F 76% 29.94 in 10.0 mi Calm Calm - N/A   Clear
4:53 AM 44.6 °F - 37.4 °F 76% 29.94 in 10.0 mi Calm Calm - N/A   Clear
5:13 AM 42.8 °F - 35.6 °F 76% 29.94 in 10.0 mi Calm Calm - N/A   Clear
5:33 AM 42.8 °F - 35.6 °F 76% 29.94 in 10.0 mi Calm Calm - N/A   Clear
5:53 AM 41.0 °F - 35.6 °F 81% 29.95 in 10.0 mi Calm Calm - N/A   Clear
6:13 AM 41.0 °F - 35.6 °F 81% 29.95 in 10.0 mi Calm Calm - N/A   Clear
6:33 AM 39.2 °F - 35.6 °F 87% 29.95 in 10.0 mi Calm Calm - N/A   Clear
6:53 AM 39.2 °F 37.0 °F 35.6 °F 87% 29.96 in 10.0 mi NNW 3.5 mph - N/A   Clear
7:13 AM 37.4 °F - 35.6 °F 93% 29.97 in 10.0 mi Calm Calm - N/A   Clear
7:33 AM 37.4 °F - 35.6 °F 93% 29.97 in 10.0 mi Calm Calm - N/A   Clear
7:53 AM 39.2 °F - 35.6 °F 87% 29.97 in 10.0 mi Calm Calm - N/A   Clear
8:13 AM 42.8 °F - 37.4 °F 81% 29.96 in 10.0 mi Calm Calm - N/A   Clear
8:33 AM 46.4 °F - 39.2 °F 76% 29.97 in 10.0 mi Calm Calm - N/A   Clear
8:52 AM 48.2 °F - 39.2 °F 71% 29.97 in 10.0 mi Calm Calm - N/A   Clear
9:13 AM 51.8 °F - 42.8 °F 71% 29.97 in 10.0 mi Calm Calm - N/A   Clear
9:33 AM 55.4 °F - 44.6 °F 67% 29.97 in 10.0 mi ENE 3.5 mph - N/A   Clear
9:52 AM 57.2 °F - 44.6 °F 63% 29.97 in 10.0 mi East 5.8 mph - N/A   Clear
10:13 AM 59.0 °F - 46.4 °F 63% 29.96 in 10.0 mi ENE 8.1 mph - N/A   Clear
10:32 AM 60.8 °F - 46.4 °F 59% 29.96 in 10.0 mi East 6.9 mph - N/A   Clear
10:53 AM 62.6 °F - 44.6 °F 52% 29.95 in 10.0 mi ESE 5.8 mph - N/A   Clear
11:13 AM 64.4 °F - 42.8 °F 45% 29.95 in 10.0 mi East 4.6 mph - N/A   Clear
11:33 AM 64.4 °F - 39.2 °F 40% 29.95 in 10.0 mi SE 5.8 mph - N/A   Clear
11:53 AM 64.4 °F - 39.2 °F 40% 29.94 in 10.0 mi Calm Calm - N/A   Clear
12:13 PM 64.4 °F - 39.2 °F 40% 29.94 in 10.0 mi ENE 5.8 mph - N/A   Clear
12:32 PM 66.2 °F - 39.2 °F 37% 29.93 in 10.0 mi Calm Calm - N/A   Clear
12:53 PM 66.2 °F - 37.4 °F 35% 29.93 in 10.0 mi Calm Calm - N/A   Clear
1:13 PM 66.2 °F - 39.2 °F 37% 29.92 in 10.0 mi SSW 5.8 mph - N/A   Clear
1:33 PM 68.0 °F - 37.4 °F 33% 29.91 in 10.0 mi SE 5.8 mph - N/A   Clear
1:53 PM 68.0 °F - 37.4 °F 33% 29.90 in 10.0 mi SSW 4.6 mph - N/A   Clear
2:13 PM 69.8 °F - 37.4 °F 31% 29.89 in 10.0 mi SE 4.6 mph - N/A   Clear
2:33 PM 69.8 °F - 35.6 °F 28% 29.89 in 10.0 mi SSE 5.8 mph - N/A   Clear
2:53 PM 69.8 °F - 33.8 °F 27% 29.88 in 1.0 mi South 3.5 mph - N/A   Haze
3:13 PM 69.8 °F - 32.0 °F 25% 29.87 in 10.0 mi Calm Calm - N/A   Clear
3:33 PM 69.8 °F - 33.8 °F 27% 29.87 in 10.0 mi Calm Calm - N/A   Clear
3:53 PM 69.8 °F - 33.8 °F 27% 29.87 in 10.0 mi ESE 3.5 mph - N/A   Clear
4:13 PM 71.6 °F - 35.6 °F 27% 29.87 in 10.0 mi Calm Calm - N/A   Clear
4:33 PM 69.8 °F - 35.6 °F 28% 29.87 in 10.0 mi ENE 3.5 mph - N/A   Clear
4:53 PM 69.8 °F - 35.6 °F 28% 29.86 in 10.0 mi Calm Calm - N/A   Clear
5:12 PM 69.8 °F - 35.6 °F 28% 29.86 in 10.0 mi Calm Calm - N/A   Clear
5:33 PM 69.8 °F - 35.6 °F 28% 29.86 in 10.0 mi SW 3.5 mph - N/A   Clear
5:53 PM 69.8 °F - 33.8 °F 27% 29.86 in 10.0 mi Calm Calm - N/A   Clear
6:13 PM 69.8 °F - 35.6 °F 28% 29.86 in 10.0 mi Calm Calm - N/A   Clear
6:33 PM 66.2 °F - 35.6 °F 32% 29.87 in 10.0 mi Calm Calm - N/A   Clear
6:52 PM 64.4 °F - 37.4 °F 37% 29.87 in 10.0 mi Calm Calm - N/A   Clear
7:13 PM 62.6 °F - 37.4 °F 39% 29.87 in 10.0 mi Calm Calm - N/A   Clear
7:33 PM 60.8 °F - 39.2 °F 45% 29.88 in 10.0 mi Calm Calm - N/A   Clear
8:13 PM 55.4 °F - 39.2 °F 54% 29.88 in 10.0 mi Calm Calm - N/A   Clear
8:33 PM 53.6 °F - 39.2 °F 58% 29.88 in 10.0 mi Calm Calm - N/A   Clear
8:53 PM 51.8 °F - 39.2 °F 62% 29.89 in 10.0 mi Calm Calm - N/A   Clear
9:13 PM 53.6 °F - 37.4 °F 54% 29.89 in 10.0 mi Calm Calm - N/A   Clear
9:32 PM 50.0 °F - 39.2 °F 66% 29.88 in 7.0 mi SSE 3.5 mph - N/A   Clear
9:53 PM 48.2 °F - 39.2 °F 71% 29.89 in 10.0 mi Calm Calm - N/A   Clear
10:13 PM 48.2 °F - 39.2 °F 71% 29.89 in 10.0 mi Calm Calm - N/A   Clear
10:33 PM 48.2 °F - 41.0 °F 76% 29.90 in 10.0 mi Calm Calm - N/A   Clear
10:53 PM 48.2 °F - 41.0 °F 76% 29.90 in 10.0 mi Calm Calm - N/A   Clear
11:13 PM 46.4 °F - 41.0 °F 81% 29.90 in 10.0 mi Calm Calm - N/A   Clear
11:33 PM 44.6 °F - 39.2 °F 81% 29.90 in 10.0 mi Calm Calm - N/A   Clear
11:53 PM 46.4 °F - 39.2 °F 76% 29.90 in 10.0 mi Calm Calm - N/A   Clear